Temperature
18 19 19 18 18 18 18 18 18 18 18 18 18 18 18 18 18 18 18 18 18 18 18 18 18 18 18 18 19 19 19 19 19 19 19 19 18 18 18 18 18 18 18
18 18 18 18 18 18 18 18 18 18 18 18 18 18 18 18 18 18 18 18 18 18 18 18 18 18 18 18 18 19 19 19 19 18 18 18 18 18 18 18 18 18 18
18 18 18 18 18 18 18 18 18 18 18 18 18 18 18 18 18 18 18 18 18 18 18 18 18 18 18 18 18 18 18 18 18 18 18 18 18 18 18 18 18 18 18
18 18 18 18 18 18 18 18 18 18 18 18 18 18 18 18 18 18 18 18 18 18 18 18 18 18 18 18 18 18 18 18 18 18 18 18 18 18 18 18 18 18 18
18 18 18 18 18 18 18 18 17 17 17 17 17 17 17 17 17 18 18 18 18 18 18 18 18 18 18 18 18 18 18 18 18 18 18 18 18 18 18 18 18 18 18
18 18 18 18 18 18 18 17 17 17 17 17 17 17 17 17 17 17 17 17 17 17 17 17 18 18 18 18 18 18 18 18 18 18 18 18 18 18 18 18 18 18 18
18 18 18 18 18 18 18 17 17 17 17 17 17 17 17 17 17 17 17 17 17 17 17 17 17 18 18 18 18 18 18 18 18 18 18 18 18 18 18 18 18 18 18
18 18 18 18 18 18 17 17 17 17 17 17 17 17 17 17 17 17 17 17 17 17 17 17 17 17 17 17 18 18 18 18 18 18 18 18 18 18 18 18 18 18 18
19 18 18 18 18 18 17 17 17 17 17 17 17 17 17 17 17 17 16 16 17 17 17 17 17 17 17 17 18 18 18 18 18 18 18 18 18 18 18 18 18 18 18
19 19 18 18 18 18 18 17 17 17 17 17 17 17 17 17 16 16 16 16 16 16 16 17 17 17 17 17 17 18 18 18 18 18 18 18 18 18 18 18 18 18 18
19 19 19 18 18 18 18 17 17 17 17 17 16 16 17 16 16 16 16 16 16 16 16 16 16 17 17 17 17 17 18 18 18 18 18 18 18 18 18 18 18 18 18
20 19 19 19 19 18 18 18 17 17 17 17 16 16 16 16 16 16 16 16 16 16 16 16 16 16 17 17 17 17 17 18 18 18 18 18 18 18 18 18 18 18 18
20 20 20 19 19 19 18 18 17 17 17 17 17 16 16 16 16 16 16 16 16 16 16 16 16 16 17 17 17 17 17 17 17 17 18 18 17 18 18 18 18 18 18
20 20 20 20 19 19 18 18 18 17 17 17 17 17 16 16 16 16 16 16 16 16 16 16 16 16 16 17 17 17 17 17 17 17 17 17 17 18 18 18 18 18 18
20 20 20 20 19 19 18 18 18 18 17 17 17 16 16 16 16 16 16 16 16 16 16 16 16 16 16 16 17 17 17 17 17 17 17 17 17 17 17 17 18 18 18
21 20 20 19 19 19 18 18 18 17 17 17 17 16 16 16 16 16 16 16 16 16 16 16 16 16 16 16 16 16 17 17 17 17 17 17 17 17 17 17 18 17 17
21 20 20 19 19 18 18 18 18 17 17 17 16 16 16 16 16 16 15 15 15 15 15 15 15 16 16 16 16 16 16 16 17 17 17 17 17 17 17 17 17 17 17
21 20 20 19 19 18 18 18 17 17 17 17 16 16 16 15 15 15 15 15 15 15 15 15 15 15 15 16 16 16 16 16 16 16 17 17 17 17 17 17 17 17 17
21 20 20 19 19 18 18 17 17 17 17 16 16 16 15 15 15 15 15 15 15 14 14 14 15 15 15 15 16 16 16 16 16 16 17 17 17 17 17 17 17 17 17
21 21 20 19 19 18 18 17 17 17 16 16 16 15 15 15 15 15 14 14 14 14 14 14 14 15 15 15 15 16 16 16 16 16 16 16 17 16 17 17 17 17 17
21 21 20 19 19 18 18 17 17 17 16 16 16 15 15 15 14 14 14 14 14 14 14 14 14 14 14 15 15 15 16 16 16 16 16 16 16 16 16 17 17 17 17
21 20 20 19 19 18 18 17 17 17 16 16 16 15 15 15 14 14 14 14 14 14 14 14 14 14 14 14 15 15 15 16 16 16 16 16 16 16 16 16 16 17 17
21 20 20 19 19 18 18 17 17 16 16 16 16 16 15 15 14 14 14 14 14 14 14 14 14 14 14 14 14 14 15 15 16 16 16 16 16 16 16 16 16 16 16
20 20 20 19 19 18 18 17 17 17 16 16 16 16 15 15 15 14 14 14 14 14 14 14 14 14 14 14 14 14 15 15 15 15 16 16 16 16 16 16 16 16 16
20 19 19 19 19 18 18 17 17 16 16 16 16 16 15 15 15 15 14 14 14 14 14 14 14 14 14 14 14 14 14 15 15 15 15 15 16 16 16 16 16 16 16
19 19 19 19 18 18 18 17 17 16 16 16 16 16 16 15 15 15 15 14 14 14 14 14 14 14 14 14 14 14 14 14 14 15 15 15 15 16 16 16 16 16 16
Wind_Speed
9 11 11 11 12 12 11 11 11 11 10 10 9 8 8 7 8 8 8 8 7 7 7 7 7 7 7 7 8 8 8 7 7 6 6 5 5 5 7 8 9 7 8
13 13 12 12 12 12 12 11 11 11 11 10 9 9 8 7 7 7 7 7 7 7 6 6 6 7 7 7 7 7 7 7 7 7 7 5 2 4 6 8 9 7 8
14 14 13 12 12 12 11 11 11 11 10 10 9 8 7 7 7 6 6 6 6 6 6 6 6 6 6 6 6 7 7 7 8 10 10 5 2 5 7 8 8 8 8
14 13 14 13 13 12 11 11 10 10 9 9 8 8 7 6 6 5 5 5 5 5 5 5 5 5 5 5 6 6 6 8 10 12 9 3 5 7 7 7 8 8 8
14 15 14 13 13 12 12 11 10 10 9 8 7 7 6 5 5 4 4 5 5 5 4 5 5 4 4 4 5 5 6 8 11 11 8 5 8 7 7 7 7 7 8
14 15 14 13 12 12 11 11 10 9 8 7 7 6 5 5 4 4 4 4 4 4 4 4 4 4 4 4 5 5 7 8 11 9 6 5 7 7 7 6 7 7 7
13 14 14 13 12 12 11 10 9 8 7 7 6 5 4 4 4 4 3 4 4 4 4 4 4 4 4 4 4 5 6 9 9 7 5 4 7 6 6 6 6 6 7
12 13 14 13 13 12 11 10 8 7 6 5 4 3 2 1 2 2 2 3 3 4 4 4 4 4 4 5 5 5 6 8 9 7 4 5 8 7 5 5 5 5 5
9 10 12 13 13 12 11 10 8 6 5 3 2 1 1 3 3 3 2 1 2 3 4 5 5 5 5 5 6 6 6 8 8 6 5 5 8 6 5 4 4 4 4
8 8 7 9 12 12 11 10 8 6 4 3 3 4 5 7 8 7 4 2 1 3 4 5 6 6 7 7 8 8 8 8 8 6 1 6 8 6 5 4 3 4 3
7 6 7 6 7 7 9 10 9 8 6 6 6 7 7 7 5 5 4 5 4 4 5 6 8 8 9 10 12 11 9 8 7 4 3 7 8 6 4 3 3 3 3
6 5 5 6 5 5 5 7 5 5 4 4 1 2 3 4 2 0 4 5 6 7 7 9 11 10 10 9 11 12 8 9 6 3 5 9 7 5 3 2 2 2 2
6 5 5 5 5 5 3 3 2 2 1 1 3 2 3 5 4 1 1 3 5 6 5 5 7 7 6 5 4 6 7 6 3 2 6 9 7 5 3 3 2 2 2
7 5 5 3 4 4 4 1 2 1 1 2 4 4 3 2 2 2 1 1 2 2 1 1 3 4 5 5 3 3 3 3 2 3 7 9 7 5 4 3 3 3 2
7 6 5 3 4 5 4 1 1 2 2 3 3 5 4 1 3 3 2 1 3 3 1 2 3 3 3 4 3 3 3 2 2 1 5 8 8 7 6 4 4 4 4
7 7 6 4 4 4 3 1 2 2 2 2 3 4 4 2 2 2 3 2 2 3 3 3 3 3 3 3 3 4 3 2 2 1 4 6 8 8 7 6 5 5 6
7 8 7 4 4 5 5 4 2 2 3 2 2 4 6 5 4 2 4 4 3 4 4 3 4 4 4 4 3 4 3 2 2 2 3 5 7 8 8 8 7 7 7
7 8 7 4 4 5 4 3 2 3 3 2 3 5 8 8 6 3 3 4 4 4 3 3 2 3 4 4 3 4 3 1 3 3 4 5 6 7 8 10 9 8 8
7 8 7 5 4 4 3 1 1 2 1 2 3 5 6 8 8 4 3 3 4 3 4 5 3 3 4 5 4 3 3 3 3 4 3 4 5 7 8 10 11 10 10
5 7 7 6 4 4 2 1 2 2 2 2 3 3 3 5 7 5 3 4 3 3 4 4 4 4 4 4 6 4 3 3 2 2 3 2 1 4 7 8 9 9 11
4 5 6 5 5 4 2 1 2 1 2 1 1 2 2 3 4 4 3 4 3 3 3 5 4 5 4 4 3 4 4 2 2 2 2 1 1 1 4 7 9 9 9
4 4 4 5 5 5 3 1 1 0 1 0 1 0 1 3 3 4 4 4 3 2 3 4 4 3 4 4 3 2 2 3 3 2 2 2 2 1 2 4 7 8 8
4 3 3 3 5 5 4 1 1 1 2 1 1 1 1 2 1 2 3 4 4 3 2 3 3 3 3 4 3 1 1 2 3 2 2 1 2 2 1 2 4 6 7
3 3 2 3 3 4 4 2 0 1 1 2 1 0 2 2 1 1 3 4 4 3 3 3 2 2 2 3 3 2 2 2 1 2 3 1 1 2 1 1 2 3 6
4 3 2 3 3 3 2 2 1 2 2 2 2 2 2 2 2 2 2 3 4 3 3 3 2 3 2 2 2 2 3 2 2 1 2 2 1 1 1 1 2 2 4
5 4 2 3 3 3 1 1 3 3 3 3 3 3 2 2 2 2 2 3 3 3 3 3 2 3 3 3 3 2 2 1 2 1 2 1 1 1 0 1 2 2 3
Wind_Direction
102 104 101 97 94 91 88 90 89 87 86 83 80 76 72 69 65 59 54 50 45 40 38 39 38 32 30 32 32 27 22 16 8 359 356 2 20 32 31 24 18 29 32
110 106 100 96 94 91 90 90 87 83 81 79 76 75 72 67 63 57 52 47 41 36 35 36 33 34 26 21 24 21 14 4 350 335 325 323 9 43 40 32 30 33 30
109 109 100 94 93 91 89 90 86 83 81 78 75 73 70 66 63 57 51 42 36 30 31 28 27 30 24 16 14 11 5 350 334 324 314 298 92 68 50 40 34 32 31
105 105 99 95 92 90 88 89 88 85 81 77 73 70 65 62 57 47 41 34 27 23 24 20 18 21 17 9 8 4 357 339 325 319 321 7 77 71 55 43 37 34 31
103 100 100 97 93 90 88 86 87 86 81 77 73 69 64 58 50 41 35 30 24 19 19 12 6 3 358 354 355 350 345 334 322 316 319 48 82 74 59 48 42 37 34
106 106 106 103 99 94 90 87 86 84 80 76 70 64 59 55 48 40 30 21 12 6 4 4 358 352 346 341 339 336 333 328 320 319 333 67 87 74 63 54 47 41 38
113 116 118 113 108 102 96 90 86 83 80 75 69 61 53 47 38 26 16 8 3 354 348 351 344 339 335 329 326 326 325 320 301 303 316 92 101 84 68 58 50 45 41
114 121 125 125 121 115 107 97 89 85 82 78 74 66 52 36 19 1 351 352 343 340 335 330 326 319 318 317 310 307 312 311 315 326 327 111 109 96 75 64 55 48 42
116 125 135 139 133 124 115 109 104 101 101 102 109 144 245 257 250 244 250 339 339 328 319 311 308 300 290 288 286 285 290 298 301 298 322 101 109 101 84 67 57 50 47
119 119 124 133 135 138 134 131 133 139 151 165 195 229 246 252 243 233 222 184 281 295 297 294 288 284 276 269 264 264 268 279 270 275 337 109 109 100 84 71 63 56 54
116 123 125 128 124 131 141 143 163 172 189 205 212 232 255 256 233 220 175 173 222 255 268 271 269 268 268 262 253 249 253 254 255 251 116 117 111 101 96 84 77 64 56
132 125 121 120 119 112 99 135 159 160 176 214 167 195 280 313 332 283 162 207 231 248 257 259 261 267 263 254 244 234 238 245 245 239 137 130 118 109 110 111 100 82 67
123 108 108 113 116 114 107 108 88 93 134 30 19 14 1 351 345 337 172 204 237 245 244 258 254 255 256 248 231 208 225 246 234 174 134 132 127 124 130 142 132 123 90
107 108 102 98 110 106 91 83 172 114 63 56 14 358 41 16 329 350 321 5 287 272 242 259 256 275 285 280 262 243 245 241 243 155 151 150 149 156 166 165 154 149 139
130 127 108 93 83 90 101 260 85 90 44 65 43 349 31 23 330 351 327 352 314 327 322 295 284 294 309 318 322 308 291 282 271 215 155 164 165 171 179 176 169 165 167
134 122 100 81 87 83 98 52 70 67 114 55 50 350 5 14 340 347 330 330 333 338 337 330 313 314 306 301 302 305 295 285 278 252 186 180 177 181 185 181 174 173 172
124 114 102 92 78 67 48 21 42 50 44 41 52 6 6 6 357 3 354 345 343 343 336 333 338 335 316 309 303 292 281 270 268 258 217 183 182 191 190 183 177 174 174
116 113 116 108 92 87 71 30 8 39 37 8 38 29 8 358 4 6 355 338 342 341 332 328 321 322 319 317 312 303 303 294 253 246 232 200 187 188 191 188 183 179 176
124 128 124 109 101 98 103 140 78 46 40 356 45 47 12 351 356 7 340 334 346 342 340 329 347 340 322 319 301 274 266 261 259 263 248 224 187 179 180 184 186 181 175
127 124 120 128 118 109 97 40 68 51 359 23 59 64 19 340 355 358 329 341 355 346 338 329 329 320 303 300 303 307 283 254 242 262 265 253 176 185 179 174 176 181 181
129 125 130 138 137 118 88 46 32 36 335 7 32 69 3 342 353 337 328 334 347 337 327 323 325 325 314 306 311 312 298 274 234 241 243 220 196 198 168 169 173 175 179
122 114 130 132 122 117 124 164 187 137 287 276 340 86 12 351 347 338 341 332 324 316 320 316 321 316 311 318 314 318 323 328 313 249 221 201 189 175 180 171 172 173 173
100 112 113 114 132 136 147 135 356 339 291 302 257 175 224 250 280 317 319 313 311 314 300 299 309 307 300 310 312 309 315 288 306 310 265 186 170 156 160 163 147 154 155
114 104 109 117 116 123 136 140 296 288 289 288 311 236 265 234 213 244 287 295 299 304 308 304 323 317 309 300 308 294 270 270 288 315 323 345 156 138 148 150 140 132 143
80 74 53 85 87 93 97 127 229 285 302 317 319 294 276 261 227 220 247 281 288 292 300 301 321 309 293 279 281 294 303 302 269 226 279 313 356 72 131 133 138 133 136
66 58 37 49 69 76 52 252 229 254 274 284 285 286 285 271 247 233 237 272 286 300 313 309 290 282 272 275 278 271 266 273 278 261 252 256 245 265 144 152 151 147 132
Height
1507 1507 1508 1509 1510 1511 1512 1513 1514 1515 1516 1517 1518 1519 1519 1520 1521 1522 1522 1522 1523 1523 1523 1523 1523 1523 1523 1524 1524 1524 1524 1524 1524 1524 1524 1524 1524 1523 1523 1522 1522 1521 1520
1508 1508 1509 1510 1511 1512 1513 1514 1515 1516 1517 1518 1519 1519 1520 1521 1521 1522 1522 1523 1523 1523 1524 1524 1524 1524 1524 1524 1524 1524 1525 1525 1525 1525 1525 1525 1524 1524 1523 1523 1522 1521 1520
1509 1509 1510 1511 1512 1513 1514 1515 1516 1517 1518 1519 1519 1520 1521 1521 1522 1522 1523 1523 1523 1524 1524 1524 1524 1524 1524 1524 1524 1525 1525 1525 1526 1526 1526 1525 1525 1525 1524 1523 1522 1521 1521
1510 1511 1512 1512 1513 1514 1515 1516 1517 1517 1518 1519 1520 1520 1521 1521 1522 1522 1523 1523 1523 1524 1524 1524 1524 1524 1524 1524 1524 1525 1525 1526 1526 1526 1526 1526 1526 1525 1524 1524 1523 1522 1521
1512 1512 1513 1514 1514 1515 1516 1517 1517 1518 1519 1519 1520 1521 1521 1521 1522 1522 1522 1523 1523 1523 1523 1523 1524 1524 1524 1524 1524 1524 1525 1525 1526 1526 1526 1526 1526 1526 1525 1524 1523 1522 1521
1513 1513 1514 1515 1516 1516 1517 1518 1518 1519 1519 1520 1520 1520 1521 1521 1521 1521 1522 1522 1522 1522 1522 1523 1523 1523 1523 1523 1524 1524 1524 1525 1526 1526 1526 1526 1526 1526 1525 1524 1524 1523 1522
1514 1515 1516 1516 1517 1517 1518 1518 1519 1519 1520 1520 1520 1520 1520 1521 1521 1521 1521 1521 1521 1521 1521 1522 1522 1522 1522 1522 1523 1523 1523 1524 1525 1525 1526 1526 1526 1526 1525 1524 1524 1523 1522
1516 1516 1517 1518 1518 1519 1519 1519 1520 1520 1520 1520 1520 1520 1520 1520 1521 1521 1520 1520 1520 1520 1520 1520 1520 1521 1521 1521 1521 1522 1522 1523 1524 1524 1525 1525 1525 1525 1525 1525 1524 1523 1522
1518 1518 1518 1519 1519 1519 1520 1520 1520 1520 1520 1520 1520 1520 1520 1520 1520 1520 1520 1520 1520 1519 1519 1519 1519 1519 1519 1520 1520 1521 1521 1522 1523 1524 1524 1524 1525 1525 1525 1524 1524 1523 1523
1520 1520 1521 1521 1521 1521 1521 1521 1521 1521 1521 1521 1520 1520 1520 1520 1520 1520 1519 1519 1519 1518 1518 1518 1518 1518 1518 1519 1519 1520 1520 1521 1522 1522 1523 1524 1524 1524 1524 1524 1524 1523 1523
1521 1522 1522 1523 1523 1523 1522 1522 1522 1522 1521 1521 1521 1521 1520 1520 1520 1520 1520 1519 1519 1518 1517 1517 1517 1517 1517 1517 1518 1518 1519 1519 1520 1521 1522 1523 1524 1524 1524 1524 1524 1523 1523
1522 1523 1523 1524 1524 1524 1524 1523 1523 1523 1523 1522 1522 1522 1521 1521 1521 1521 1520 1519 1518 1517 1517 1516 1516 1516 1516 1516 1516 1517 1518 1518 1519 1520 1521 1522 1523 1523 1523 1523 1523 1523 1523
1522 1524 1525 1525 1524 1525 1524 1525 1524 1524 1524 1523 1523 1522 1521 1521 1521 1520 1519 1519 1518 1517 1517 1516 1516 1515 1515 1515 1516 1516 1517 1517 1518 1518 1519 1520 1521 1522 1522 1522 1523 1523 1523
1523 1525 1525 1526 1525 1525 1525 1525 1525 1525 1524 1524 1523 1522 1521 1521 1520 1520 1519 1519 1518 1517 1517 1516 1515 1515 1515 1515 1515 1515 1516 1516 1517 1517 1518 1519 1520 1520 1521 1521 1522 1522 1523
1523 1525 1526 1526 1526 1526 1525 1525 1526 1525 1525 1524 1523 1522 1522 1521 1520 1519 1519 1518 1518 1517 1516 1516 1515 1515 1514 1514 1513 1514 1514 1515 1515 1516 1516 1517 1518 1519 1520 1520 1521 1522 1522
1523 1525 1526 1526 1526 1526 1526 1526 1525 1525 1525 1524 1523 1522 1522 1521 1520 1519 1518 1518 1517 1516 1516 1515 1514 1514 1513 1513 1512 1512 1513 1513 1513 1514 1515 1515 1516 1517 1518 1519 1520 1521 1522
1523 1524 1525 1526 1526 1526 1526 1526 1526 1525 1525 1524 1523 1522 1521 1521 1520 1518 1517 1517 1516 1515 1514 1514 1513 1512 1512 1512 1511 1511 1511 1511 1512 1512 1513 1514 1514 1515 1516 1517 1518 1520 1521
1523 1524 1525 1526 1526 1526 1526 1525 1525 1525 1524 1524 1523 1522 1521 1520 1519 1518 1517 1516 1515 1514 1513 1513 1512 1511 1511 1511 1510 1510 1510 1510 1510 1511 1512 1512 1513 1514 1514 1516 1517 1519 1520
1523 1524 1525 1526 1526 1526 1526 1526 1525 1525 1524 1524 1523 1521 1520 1519 1518 1517 1516 1515 1514 1513 1512 1512 1511 1510 1509 1509 1509 1508 1508 1508 1509 1509 1510 1510 1511 1512 1513 1514 1516 1517 1519
1523 1524 1524 1525 1526 1526 1526 1526 1525 1525 1524 1524 1522 1521 1519 1518 1517 1516 1515 1514 1513 1512 1511 1510 1510 1509 1508 1508 1507 1507 1507 1507 1507 1507 1508 1508 1509 1510 1511 1513 1514 1515 1518
1523 1524 1524 1525 1525 1525 1525 1525 1525 1524 1524 1523 1522 1520 1519 1518 1517 1516 1514 1513 1512 1511 1510 1509 1508 1508 1507 1507 1506 1505 1505 1505 1505 1505 1506 1507 1508 1508 1509 1511 1512 1514 1516
1523 1523 1524 1525 1525 1525 1524 1524 1524 1524 1523 1522 1521 1520 1518 1517 1516 1515 1514 1512 1512 1510 1509 1508 1508 1507 1506 1506 1506 1505 1505 1505 1504 1504 1504 1505 1506 1506 1508 1509 1511 1513 1514
1522 1523 1524 1524 1524 1523 1524 1524 1524 1523 1522 1522 1521 1519 1518 1516 1515 1514 1513 1512 1511 1510 1509 1508 1507 1506 1505 1505 1505 1506 1505 1504 1503 1503 1503 1504 1505 1506 1507 1508 1509 1511 1513
1522 1522 1523 1523 1524 1523 1523 1522 1522 1522 1522 1521 1520 1519 1517 1516 1514 1513 1512 1511 1510 1509 1508 1507 1506 1505 1504 1504 1504 1504 1505 1504 1504 1503 1503 1503 1503 1505 1506 1507 1509 1510 1512
1521 1522 1523 1523 1523 1522 1522 1522 1521 1521 1521 1520 1519 1518 1516 1515 1513 1512 1511 1510 1509 1508 1507 1506 1505 1504 1503 1503 1502 1502 1503 1503 1503 1503 1502 1502 1503 1504 1505 1506 1507 1509 1510
1521 1521 1522 1522 1522 1521 1521 1521 1520 1520 1519 1519 1518 1517 1515 1514 1513 1511 1510 1509 1508 1507 1506 1504 1503 1503 1502 1501 1501 1501 1501 1501 1501 1501 1501 1501 1502 1503 1503 1505 1506 1507 1508